Wahoo, NE

7:09 AM CDT on May 26, 2018 (GMT -0500)
Wahoo Municipal

Weather History for KAHQ - February, 2014

Change the Weather History Date:

Sunday, February 9, 2014

  Actual Average Record
Temperature  
Mean Temperature 10 °F -  
Max Temperature 19 °F 35 °F 62 °F (1977)
Min Temperature 1 °F 11 °F -16 °F (1975)
Degree Days  
Heating Degree Days 55    
Moisture  
Dew Point 2 °F    
Average Humidity 69    
Maximum Humidity 81    
Minimum Humidity 59    
Precipitation  
Precipitation 0.00 in - - ()
Sea Level Pressure  
Sea Level Pressure 30.34 in    
Wind  
Wind Speed 10 mph (NNW)    
Max Wind Speed 16 mph    
Max Gust Speed 18 mph    
Visibility 10 miles    
Events Snow    
Averages and records for this station are not official NWS values.
T = Trace of Precipitation, MM = Missing Value Source: NWS Daily Summary

Daily Weather History Graph

Daily Weather History Graph

Search for Another Location

Airport or City:

Astronomy

Feb. 09, 2014 Rise Set
Actual Time 7:28 AM CST 5:53 PM CST
Civil Twilight 6:59 AM CST 6:21 PM CST
Nautical Twilight 6:27 AM CST 6:54 PM CST
Astronomical Twilight 5:55 AM CST 7:26 PM CST
Moon 1:33 PM CST (2/9) 3:35 AM CST (2/9)
Length of Visible Light 11h 21m
Length of Day
10h 24m
Waxing Gibbous, 77% of the Moon is Illuminated
Feb 9
Waxing Gibbous
Feb 14
Full
Feb 22
Last Quarter
Mar 1
New
Mar 8
First Quarter

Hourly Weather History & Observations

Time (CST) Temp. Windchill Dew Point Humidity Pressure Visibility Wind Dir Wind Speed Gust Speed Precip Events Conditions
12:15 AM 19.0 °F 9.0 °F 14.0 °F 81% 30.22 in 10.0 mi NNW 8.1 mph - N/A Snow Light Snow
12:35 AM 18.5 °F 6.8 °F 12.7 °F 78% 30.24 in 10.0 mi North 10.4 mph - N/A   Overcast
12:55 AM 17.6 °F 7.3 °F 11.3 °F 76% 30.24 in 10.0 mi NNW 8.1 mph - N/A   Overcast
1:15 AM 17.6 °F 6.4 °F 11.3 °F 76% 30.24 in 10.0 mi North 9.2 mph - N/A   Overcast
1:35 AM 15.8 °F 6.1 °F 9.9 °F 77% 30.24 in 10.0 mi North 6.9 mph - N/A   Scattered Clouds
1:55 AM 14.9 °F 4.0 °F 9.5 °F 79% 30.24 in 10.0 mi NNW 8.1 mph - N/A   Clear
2:15 AM 14.5 °F 3.6 °F 8.8 °F 78% 30.24 in 10.0 mi NNW 8.1 mph - N/A   Clear
2:35 AM 14.5 °F 4.6 °F 9.1 °F 79% 30.24 in 10.0 mi NNW 6.9 mph - N/A   Clear
2:55 AM 14.5 °F 3.6 °F 9.1 °F 79% 30.25 in 10.0 mi NNW 8.1 mph - N/A   Scattered Clouds
3:15 AM 14.5 °F 5.7 °F 9.1 °F 79% 30.24 in 10.0 mi NNW 5.8 mph - N/A   Scattered Clouds
3:35 AM 14.5 °F 7.1 °F 8.8 °F 78% 30.24 in 10.0 mi NNW 4.6 mph - N/A   Scattered Clouds
3:55 AM 14.2 °F 5.3 °F 8.6 °F 78% 30.24 in 10.0 mi NNW 5.8 mph - N/A   Scattered Clouds
4:15 AM 14.0 °F 3.9 °F 8.6 °F 79% 30.25 in 10.0 mi NNW 6.9 mph - N/A   Mostly Cloudy
4:35 AM 14.5 °F 1.1 °F 8.8 °F 78% 30.24 in 10.0 mi NNW 11.5 mph - N/A   Overcast
4:55 AM 13.6 °F -1.3 °F 7.2 °F 75% 30.25 in 10.0 mi NNW 13.8 mph - N/A   Scattered Clouds
5:15 AM 12.9 °F -2.2 °F 6.1 °F 74% 30.25 in 10.0 mi NNW 13.8 mph - N/A   Clear
5:35 AM 12.2 °F -1.0 °F 5.9 °F 76% 30.26 in 10.0 mi North 10.4 mph - N/A   Clear
5:55 AM 11.8 °F -4.2 °F 5.7 °F 76% 30.25 in 10.0 mi North 15.0 mph - N/A   Scattered Clouds
6:15 AM 11.3 °F -3.6 °F 5.0 °F 76% 30.25 in 10.0 mi North 12.7 mph - N/A   Mostly Cloudy
6:35 AM 10.9 °F -4.1 °F 5.0 °F 77% 30.27 in 10.0 mi North 12.7 mph - N/A   Scattered Clouds
6:55 AM 10.8 °F -3.6 °F 4.6 °F 76% 30.27 in 10.0 mi North 11.5 mph - N/A   Scattered Clouds
7:15 AM 10.0 °F - 3.7 °F 76% 30.28 in 10.0 mi North - - N/A   Overcast
7:35 AM 9.5 °F -5.9 °F 2.3 °F 73% 30.29 in 10.0 mi North 12.7 mph - N/A   Overcast
7:55 AM 9.0 °F -6.6 °F 1.9 °F 73% 30.30 in 10.0 mi North 12.7 mph - N/A   Overcast
8:15 AM 8.6 °F -6.3 °F 1.6 °F 73% 30.32 in 10.0 mi North 11.5 mph - N/A   Mostly Cloudy
8:35 AM 8.1 °F -8.4 °F -0.2 °F 69% 30.33 in 10.0 mi North 13.8 mph - N/A   Mostly Cloudy
8:55 AM 7.7 °F -8.2 °F -0.0 °F 71% 30.34 in 10.0 mi North 12.7 mph - N/A   Overcast
9:15 AM 7.3 °F -9.3 °F -0.4 °F 71% 30.34 in 10.0 mi NNW 13.8 mph - N/A   Overcast
9:35 AM 7.5 °F -7.7 °F -0.8 °F 69% 30.36 in 10.0 mi NNW 11.5 mph - N/A   Overcast
9:55 AM 7.7 °F -8.9 °F -1.1 °F 67% 30.37 in 10.0 mi North 13.8 mph - N/A   Overcast
10:15 AM 7.7 °F -7.4 °F -0.6 °F 69% 30.37 in 10.0 mi NNW 11.5 mph - N/A   Overcast
10:35 AM 7.5 °F -8.4 °F -1.8 °F 66% 30.37 in 10.0 mi NNW 12.7 mph - N/A   Overcast
10:55 AM 7.5 °F -8.4 °F -1.5 °F 67% 30.37 in 10.0 mi NNW 12.7 mph - N/A   Overcast
11:15 AM 7.7 °F -8.9 °F -1.3 °F 67% 30.36 in 10.0 mi North 13.8 mph - N/A   Overcast
11:35 AM 8.2 °F -8.2 °F -0.6 °F 67% 30.37 in 10.0 mi North 13.8 mph - N/A   Overcast
11:55 AM 8.6 °F -8.9 °F -0.0 °F 68% 30.38 in 10.0 mi NNW 16.1 mph - N/A   Mostly Cloudy
12:15 PM 8.6 °F -7.7 °F -1.3 °F 64% 30.38 in 10.0 mi NNW 13.8 mph - N/A   Scattered Clouds
12:35 PM 8.6 °F -8.3 °F -0.8 °F 66% 30.36 in 10.0 mi North 15.0 mph - N/A   Mostly Cloudy
12:55 PM 9.0 °F -6.6 °F -0.2 °F 66% 30.37 in 7.0 mi North 12.7 mph - N/A Snow Light Snow
1:15 PM 9.7 °F -6.3 °F -0.2 °F 64% 30.37 in 10.0 mi North 13.8 mph - N/A   Overcast
1:35 PM 10.0 °F -5.2 °F 0.1 °F 64% 30.36 in 10.0 mi NNW 12.7 mph - N/A   Mostly Cloudy
1:55 PM 9.9 °F -6.1 °F -0.9 °F 62% 30.36 in 10.0 mi North 13.8 mph 18.4 mph N/A   Mostly Cloudy
2:15 PM 10.0 °F -6.5 °F -0.9 °F 61% 30.36 in 10.0 mi North 15.0 mph - N/A   Overcast
2:35 PM 10.4 °F -4.1 °F -0.2 °F 62% 30.36 in 10.0 mi North 11.5 mph - N/A   Overcast
2:55 PM 10.9 °F -3.4 °F -0.4 °F 60% 30.34 in 10.0 mi North 11.5 mph - N/A   Overcast
3:15 PM 11.3 °F -4.3 °F -0.6 °F 59% 30.35 in 10.0 mi North 13.8 mph - N/A   Overcast
3:35 PM 11.3 °F -1.3 °F -0.6 °F 59% 30.34 in 10.0 mi NNW 9.2 mph - N/A   Overcast
3:55 PM 11.5 °F -1.9 °F -0.2 °F 59% 30.35 in 10.0 mi North 10.4 mph - N/A   Overcast
4:15 PM 11.1 °F -1.6 °F -0.6 °F 59% 30.34 in 10.0 mi North 9.2 mph - N/A   Overcast
4:35 PM 11.1 °F -3.2 °F -0.4 °F 60% 30.35 in 10.0 mi North 11.5 mph - N/A   Overcast
4:55 PM 11.3 °F -1.3 °F -0.0 °F 60% 30.37 in 10.0 mi NNW 9.2 mph - N/A   Overcast
5:15 PM 11.3 °F -2.2 °F -0.0 °F 60% 30.37 in 10.0 mi North 10.4 mph - N/A   Overcast
5:35 PM 11.3 °F -1.3 °F -0.2 °F 60% 30.37 in 10.0 mi North 9.2 mph - N/A   Overcast
5:55 PM 11.3 °F 0.7 °F 0.1 °F 61% 30.38 in 10.0 mi North 6.9 mph - N/A   Overcast
6:15 PM 11.3 °F -1.3 °F -0.0 °F 60% 30.38 in 10.0 mi North 9.2 mph - N/A   Overcast
6:35 PM 11.3 °F 1.9 °F 0.1 °F 61% 30.39 in 10.0 mi North 5.8 mph - N/A   Overcast
6:55 PM 11.3 °F 0.7 °F 0.5 °F 62% 30.39 in 10.0 mi NNE 6.9 mph - N/A   Overcast
7:15 PM 11.3 °F -0.4 °F -0.2 °F 60% 30.39 in 10.0 mi NNE 8.1 mph - N/A   Overcast
7:35 PM 11.3 °F 0.7 °F 0.5 °F 62% 30.39 in 10.0 mi NNE 6.9 mph - N/A   Overcast
7:55 PM 11.1 °F 1.7 °F 0.5 °F 62% 30.41 in 10.0 mi North 5.8 mph - N/A   Overcast
8:15 PM 11.1 °F 4.9 °F 1.4 °F 65% 30.41 in 10.0 mi North 3.5 mph - N/A   Overcast
8:35 PM 11.1 °F - 1.4 °F 65% 30.41 in 10.0 mi Calm Calm - N/A   Overcast
8:55 PM 10.9 °F 1.4 °F 1.4 °F 65% 30.42 in 10.0 mi NNW 5.8 mph - N/A   Overcast
9:15 PM 10.8 °F -1.1 °F 1.6 °F 67% 30.42 in 10.0 mi North 8.1 mph - N/A   Overcast
9:35 PM 10.0 °F -0.9 °F 1.4 °F 68% 30.42 in 10.0 mi North 6.9 mph - N/A   Overcast
9:55 PM 9.3 °F 1.0 °F 0.9 °F 69% 30.42 in 10.0 mi NNW 4.6 mph - N/A   Overcast
10:15 PM 8.1 °F -0.5 °F -0.0 °F 70% 30.42 in 10.0 mi NW 4.6 mph - N/A   Mostly Cloudy
10:35 PM 5.9 °F -4.5 °F -1.3 °F 72% 30.42 in 10.0 mi NNW 5.8 mph - N/A   Scattered Clouds
10:55 PM 4.6 °F -8.5 °F -2.2 °F 73% 30.42 in 10.0 mi NNW 8.1 mph - N/A   Clear
11:15 PM 3.2 °F -7.8 °F -3.5 °F 74% 30.42 in 10.0 mi NNW 5.8 mph - N/A   Clear
11:35 PM 1.9 °F -9.2 °F -4.2 °F 76% 30.43 in 10.0 mi NNW 5.8 mph - N/A   Clear
11:55 PM 2.3 °F -8.8 °F -4.0 °F 75% 30.44 in 10.0 mi NNW 5.8 mph - N/A   Clear